[[{"header":{"parameterUnit":"m.s-1","parameterCategory":1,"la1":30.2991,"la2":30.254,"lo1":-89.0895,"lo2":-89.0444,"dy":0.0017,"dx":0.0017,"nx":28,"ny":28,"refTime":"2025-12-15T03:00:00:Z","depth":0,"parameterNumber":2,"parameterNumberName":"U-component_of_WINDS"},"data":[0,0,0,0,0,0,0,0,0,0,0,0,0,0,0,0,0,0,0,0,0,0,0,0,0,0,0,0,0,0,0,0,0,0,0,0,0,0,0,0,0,0,0,0,0,0,0,0,0,0,0,0,0,0,0,0,0,0,-0.7739,-0.7739,0,-0.7785,-0.7786,-0.7786,-0.7762,-0.776,-0.7759,-0.7758,-0.7808,-0.7811,-0.7813,0,0,0,0,0,0,0,0,0,0,0,0,0,-0.7631,-0.7633,-0.7739,-0.7739,-0.774,-0.7785,-0.7786,-0.7786,-0.7762,-0.776,-0.7759,-0.7757,-0.7807,-0.781,-0.7813,0,0,0,0,0,0,0,0,0,0,0,0,0,-0.7678,-0.7634,-0.7739,-0.7733,-0.7733,-0.7785,-0.7786,-0.7787,-0.7762,-0.776,-0.7759,-0.7757,-0.7806,-0.781,-0.7814,-0.7874,0,0,-0.7825,-0.7827,0,0,0,0,0,0,0,0,-0.7675,-0.7682,-0.7733,-0.7734,-0.7734,-0.7766,-0.7766,-0.7816,-0.7763,-0.7751,-0.7758,-0.7756,-0.7796,-0.78,-0.7813,-0.7877,-0.7879,-0.7825,-0.7828,-0.7829,-0.783,0,0,0,0,0,0,0,-0.7672,-0.7679,-0.7757,-0.7734,-0.7734,-0.7729,-0.7733,-0.7775,-0.7784,-0.7752,-0.775,-0.7756,-0.7795,-0.781,-0.7814,-0.788,-0.7825,-0.7829,-0.7831,-0.7833,-0.7995,-0.7997,0,0,0,0,0,0,-0.7669,-0.7677,-0.7756,-0.7759,-0.7699,-0.7732,-0.7737,-0.7757,-0.7783,-0.7785,-0.7758,-0.7755,-0.7804,-0.781,-0.7816,-0.7889,-0.7829,-0.7833,-0.7835,-0.7993,-0.7995,-0.7997,0,0,0,0,0,0,-0.7666,-0.7676,-0.7754,-0.7717,-0.7727,-0.7736,-0.7759,-0.7759,-0.7773,-0.7787,-0.7789,-0.7771,-0.7803,-0.7811,-0.786,-0.789,-0.7835,-0.7838,-0.799,-0.7994,-0.7996,-0.8035,0,0,0,0,0,0,-0.7663,-0.7675,-0.7698,-0.7718,-0.7729,-0.7797,-0.7761,-0.7762,-0.778,-0.7776,-0.78,-0.7802,-0.7802,-0.7854,-0.7863,-0.7894,-0.7841,-0.7988,-0.7992,-0.7995,-0.8031,-0.8039,-0.8046,0,0,0,0,0,-0.766,-0.7708,-0.7699,-0.7709,-0.7758,-0.7799,-0.7805,-0.7803,-0.7782,-0.7806,-0.7814,-0.7801,-0.7885,-0.7859,-0.787,-0.7902,-0.7986,-0.7991,-0.7995,-0.8028,-0.8037,-0.8046,0,0,0,0,0,0,-0.7693,-0.7711,-0.7701,-0.7757,-0.7777,-0.7794,-0.7824,-0.7814,-0.784,-0.7836,-0.7834,-0.7839,-0.789,-0.7901,-0.7872,-0.7962,-0.7932,-0.7939,-0.7953,-0.7963,-0.797,-0.7967,-0.7844,0,0,0,0,0,-0.7706,-0.7738,-0.7751,-0.78,-0.781,-0.7815,-0.7833,-0.783,-0.785,-0.7858,-0.7871,-0.7891,-0.7922,-0.7943,-0.7972,-0.8032,-0.8037,-0.8059,-0.8066,-0.8072,-0.8079,-0.8111,-0.8121,-0.8013,-0.8013,-0.8013,0,0,-0.7736,-0.7749,-0.7769,-0.7807,-0.7821,-0.7854,-0.7822,-0.7859,-0.7883,-0.7864,-0.7911,-0.7921,-0.7943,-0.7998,-0.8023,-0.8009,-0.8109,-0.8078,-0.8083,-0.8086,-0.8117,-0.8127,-0.8136,-0.8016,-0.8015,-0.8015,0,0,-0.7806,-0.7818,-0.786,-0.7875,-0.7896,-0.7899,-0.7909,-0.7928,-0.7934,-0.798,-0.7967,-0.7996,-0.8049,-0.8066,-0.8081,-0.8155,-0.8144,-0.8164,-0.8204,-0.8235,-0.8244,-0.8251,-0.8278,-0.8288,-0.8171,-0.8171,-0.8171,0,-0.784,-0.7888,-0.7883,-0.792,-0.7937,-0.7919,-0.7962,-0.7976,-0.8007,-0.8019,-0.8002,-0.8068,-0.8082,-0.814,-0.8158,-0.8171,-0.8182,-0.8163,-0.8243,-0.825,-0.8257,-0.8283,-0.8293,-0.8173,-0.8173,-0.8173,-0.8172,0,-0.7929,-0.7962,-0.7993,-0.8022,-0.8042,-0.8081,-0.8083,-0.8104,-0.8098,-0.8103,-0.8151,-0.8166,-0.8198,-0.8212,-0.8207,-0.8269,-0.8259,-0.8242,-0.8213,-0.827,-0.8294,-0.8304,-0.8177,-0.8176,-0.8175,-0.8174,0,0,-0.8023,-0.8047,-0.8059,-0.8071,-0.8093,-0.8119,-0.8157,-0.8187,-0.8206,-0.8227,-0.8259,-0.8303,-0.8287,-0.8305,-0.8302,-0.8329,-0.8387,-0.8309,-0.8309,-0.8324,-0.8456,-0.847,-0.8482,-0.8379,-0.8381,-0.8382,-0.8455,0,-0.8096,-0.8162,-0.8158,-0.8221,-0.8252,-0.8234,-0.8267,-0.8285,-0.829,-0.8317,-0.8322,-0.8354,-0.833,-0.8341,-0.8367,-0.8375,-0.8414,-0.8369,-0.841,-0.8412,-0.8406,-0.8494,-0.8509,-0.8577,-0.8464,-0.8466,-0.8467,0,-0.8189,-0.8212,-0.8278,-0.8294,-0.8307,-0.8337,-0.8363,-0.8389,-0.8408,-0.841,-0.8428,-0.842,-0.8459,-0.8426,-0.848,-0.845,-0.8466,-0.8472,-0.8474,-0.848,-0.8444,-0.8503,-0.8599,-0.8609,-0.8482,-0.848,-0.8479,0,-0.8253,-0.83,-0.8345,-0.8356,-0.8376,-0.8398,-0.8407,-0.8423,-0.8441,-0.8464,-0.8476,-0.8504,-0.8519,-0.8541,-0.854,-0.8517,-0.8595,-0.8563,-0.8598,-0.8598,-0.8617,-0.8616,-0.8718,-0.8625,-0.8625,-0.8625,-0.8624,0,-0.8335,-0.8376,-0.8374,-0.8402,-0.8447,-0.8442,-0.8487,-0.8494,-0.8508,-0.8538,-0.8524,-0.8552,-0.8549,-0.8577,-0.8576,-0.8621,-0.8628,-0.8631,-0.863,-0.8633,-0.8633,-0.8645,-0.8641,-0.8627,-0.8627,-0.8626,-0.8626,0,-0.8415,-0.8415,-0.8463,-0.8477,-0.8481,-0.8514,-0.8526,-0.8553,-0.8555,-0.8593,-0.8601,-0.8606,-0.8638,-0.8639,-0.8676,-0.8675,-0.873,-0.8724,-0.8724,-0.8723,-0.8759,-0.8756,-0.8874,-0.8889,-0.8785,-0.8786,-0.8786,0,-0.8468,-0.8499,-0.8516,-0.8534,-0.8544,-0.8573,-0.8591,-0.8586,-0.8605,-0.8628,-0.8652,-0.8682,-0.8706,-0.8758,-0.8765,-0.8793,-0.8789,-0.8828,-0.8793,-0.8794,-0.879,-0.8789,-0.8792,-0.8835,-0.8836,-0.8837,-0.8838,0,-0.8563,-0.8561,-0.8587,-0.8612,-0.8633,-0.8653,-0.8672,-0.8688,-0.8685,-0.8707,-0.8739,-0.8757,-0.8794,-0.8825,-0.8851,-0.8861,-0.885,-0.8848,-0.8858,-0.8862,-0.8861,-0.8863,-0.8744,-0.8846,-0.8846,-0.8845,-0.8845,-0.8844,-0.8632,-0.8658,-0.8674,-0.8703,-0.8716,-0.8733,-0.8758,-0.8763,-0.879,-0.8819,-0.8814,-0.885,-0.8866,-0.8901,-0.8913,-0.8941,-0.8927,-0.8941,-0.8945,-0.8949,-0.8953,-0.8855,-0.8945,-0.8945,-0.8945,-0.8945,-0.8945,0,-0.8727,-0.8735,-0.8762,-0.8787,-0.881,-0.8795,-0.8814,-0.8834,-0.8865,-0.8881,-0.8905,-0.8941,-0.897,-0.8979,-0.9007,-0.9028,-0.9023,-0.9035,-0.9035,-0.9037,-0.8964,-0.8953,-0.9039,-0.9039,-0.9039,-0.9038,-0.9038,-0.9038,-0.8779,-0.8823,-0.8823,-0.8873,-0.8881,-0.8915,-0.8927,-0.8943,-0.8956,-0.8997,-0.902,-0.9025,-0.9038,-0.9066,-0.9092,-0.9094,-0.9105,-0.912,-0.912,-0.9052,-0.9042,-0.9033,-0.9023,-0.9122,-0.9123,-0.9191,-0.9192,-0.9192]},{"header":{"parameterUnit":"m.s-1","parameterCategory":1,"la1":30.2991,"la2":30.254,"lo1":-89.0895,"lo2":-89.0444,"dy":0.0017,"dx":0.0017,"nx":28,"ny":28,"refTime":"2025-12-15T03:00:00:Z","depth":0,"parameterNumber":3,"parameterNumberName":"V-component_of_WINDS"},"data":[0,0,0,0,0,0,0,0,0,0,0,0,0,0,0,0,0,0,0,0,0,0,0,0,0,0,0,0,0,0,0,0,0,0,0,0,0,0,0,0,0,0,0,0,0,0,0,0,0,0,0,0,0,0,0,0,0,0,-9.296,-9.2962,0,-9.3125,-9.3127,-9.3129,-9.3013,-9.3008,-9.3003,-9.2998,-9.316,-9.3169,-9.3178,0,0,0,0,0,0,0,0,0,0,0,0,0,-9.2539,-9.2548,-9.296,-9.2962,-9.2964,-9.3125,-9.3127,-9.3129,-9.3014,-9.3007,-9.3001,-9.2995,-9.3157,-9.3168,-9.3179,0,0,0,0,0,0,0,0,0,0,0,0,0,-9.2715,-9.255,-9.296,-9.2926,-9.2925,-9.3124,-9.3127,-9.313,-9.3015,-9.3007,-9.3,-9.2992,-9.3154,-9.3167,-9.3181,-9.3421,0,0,-9.3223,-9.3229,0,0,0,0,0,0,0,0,-9.2705,-9.273,-9.2929,-9.2929,-9.2927,-9.3041,-9.3038,-9.3227,-9.3017,-9.2981,-9.2997,-9.2989,-9.3126,-9.3142,-9.319,-9.3428,-9.3435,-9.3224,-9.3232,-9.3238,-9.3242,0,0,0,0,0,0,0,-9.2693,-9.2723,-9.3025,-9.2932,-9.2931,-9.2901,-9.2917,-9.3073,-9.3095,-9.2983,-9.2975,-9.2997,-9.3124,-9.3177,-9.3193,-9.3438,-9.3223,-9.3236,-9.3244,-9.325,-9.3882,-9.389,0,0,0,0,0,0,-9.2685,-9.2713,-9.302,-9.303,-9.2795,-9.2915,-9.2933,-9.3012,-9.3093,-9.3098,-9.3003,-9.2991,-9.3157,-9.3177,-9.3198,-9.3485,-9.3238,-9.3251,-9.3259,-9.3873,-9.3883,-9.3893,0,0,0,0,0,0,-9.2676,-9.2713,-9.3013,-9.287,-9.2905,-9.293,-9.302,-9.3019,-9.3071,-9.3108,-9.311,-9.3053,-9.3152,-9.3179,-9.3367,-9.3489,-9.3257,-9.327,-9.3863,-9.3876,-9.3888,-9.4061,0,0,0,0,0,0,-9.2664,-9.2711,-9.2804,-9.2873,-9.2914,-9.3182,-9.3027,-9.3028,-9.3096,-9.3082,-9.3155,-9.316,-9.3148,-9.3347,-9.338,-9.3504,-9.328,-9.3852,-9.3869,-9.3884,-9.4044,-9.4078,-9.4107,0,0,0,0,0,-9.265,-9.2844,-9.2809,-9.2846,-9.3031,-9.3189,-9.3212,-9.3196,-9.3107,-9.3199,-9.3223,-9.3158,-9.347,-9.3367,-9.3404,-9.3533,-9.3844,-9.3864,-9.3883,-9.403,-9.4071,-9.4106,0,0,0,0,0,0,-9.2786,-9.2852,-9.2814,-9.3037,-9.3109,-9.3169,-9.3285,-9.3239,-9.3336,-9.3318,-9.3291,-9.3309,-9.3507,-9.3538,-9.3422,-9.377,-9.3643,-9.367,-9.3742,-9.3782,-9.3812,-9.3801,-9.3292,0,0,0,0,0,-9.2843,-9.2968,-9.3018,-9.3209,-9.3247,-9.3261,-9.3329,-9.331,-9.3382,-9.3412,-9.3448,-9.3519,-9.3633,-9.3709,-9.3815,-9.4048,-9.4062,-9.4155,-9.4186,-9.4211,-9.4236,-9.4361,-9.4403,-9.3956,-9.3956,-9.3955,0,0,-9.2959,-9.3011,-9.3091,-9.3238,-9.3291,-9.342,-9.3287,-9.3428,-9.3523,-9.3432,-9.3613,-9.3643,-9.372,-9.3932,-9.4027,-9.3964,-9.4362,-9.4236,-9.4256,-9.4267,-9.4386,-9.4428,-9.4466,-9.3969,-9.3967,-9.3965,0,0,-9.3239,-9.3291,-9.3457,-9.3513,-9.3597,-9.3604,-9.3644,-9.3713,-9.373,-9.3911,-9.3846,-9.3957,-9.4154,-9.4212,-9.4267,-9.457,-9.4514,-9.4605,-9.4768,-9.4891,-9.4926,-9.4958,-9.5066,-9.5105,-9.4629,-9.4629,-9.463,0,-9.3373,-9.3567,-9.3547,-9.3695,-9.3761,-9.3687,-9.3854,-9.3909,-9.4022,-9.4069,-9.3998,-9.4244,-9.429,-9.4515,-9.4589,-9.4636,-9.468,-9.4597,-9.4923,-9.4954,-9.4983,-9.5086,-9.5127,-9.464,-9.4639,-9.4638,-9.4637,0,-9.3728,-9.3863,-9.3987,-9.4101,-9.4181,-9.4338,-9.434,-9.4423,-9.4398,-9.4412,-9.4598,-9.4651,-9.4768,-9.482,-9.4795,-9.5042,-9.5,-9.4927,-9.4799,-9.5037,-9.5133,-9.5173,-9.4655,-9.4651,-9.4648,-9.4645,0,0,-9.4098,-9.4201,-9.4247,-9.4298,-9.4385,-9.4488,-9.464,-9.4757,-9.4829,-9.4909,-9.5036,-9.5205,-9.5138,-9.5201,-9.5182,-9.529,-9.5527,-9.5203,-9.5204,-9.5262,-9.5802,-9.5858,-9.5904,-9.549,-9.5497,-9.5503,-9.5796,0,-9.4383,-9.4652,-9.4639,-9.4891,-9.5015,-9.4947,-9.5079,-9.5146,-9.5164,-9.5271,-9.5288,-9.541,-9.5312,-9.5349,-9.5453,-9.5476,-9.5635,-9.5455,-9.5607,-9.5612,-9.5591,-9.5954,-9.6014,-9.6287,-9.5833,-9.584,-9.5844,0,-9.4752,-9.4848,-9.5113,-9.5182,-9.5233,-9.5354,-9.546,-9.5563,-9.5637,-9.5642,-9.5713,-9.5677,-9.5829,-9.5698,-9.5907,-9.5785,-9.5846,-9.5867,-9.5877,-9.5891,-9.5744,-9.5979,-9.6374,-9.6416,-9.5903,-9.5899,-9.5894,0,-9.4997,-9.5192,-9.5375,-9.5421,-9.5506,-9.5593,-9.5632,-9.5698,-9.5769,-9.5861,-9.5907,-9.6014,-9.6074,-9.6157,-9.615,-9.6054,-9.6363,-9.623,-9.6371,-9.6372,-9.644,-9.6436,-9.6852,-9.6478,-9.6478,-9.6477,-9.6476,0,-9.5317,-9.5482,-9.5487,-9.56,-9.5783,-9.5765,-9.5945,-9.5974,-9.6035,-9.6151,-9.6097,-9.6207,-9.619,-9.63,-9.6295,-9.647,-9.6497,-9.6504,-9.6501,-9.651,-9.651,-9.655,-9.6532,-9.6488,-9.6485,-9.6483,-9.6481,0,-9.5622,-9.5632,-9.5828,-9.5893,-9.5914,-9.6045,-9.61,-9.6206,-9.622,-9.6368,-9.6401,-9.6422,-9.6549,-9.655,-9.6694,-9.669,-9.6905,-9.6879,-9.6881,-9.6876,-9.7018,-9.7005,-9.7475,-9.7536,-9.7122,-9.7126,-9.7129,0,-9.5826,-9.5952,-9.6031,-9.6107,-9.6152,-9.6274,-9.6347,-9.6334,-9.6412,-9.6507,-9.6602,-9.6724,-9.6821,-9.7026,-9.7052,-9.7162,-9.7139,-9.7297,-9.7155,-9.7161,-9.7143,-9.7136,-9.7149,-9.7324,-9.7329,-9.7333,-9.7336,0,-9.6188,-9.6187,-9.6296,-9.6408,-9.6498,-9.6584,-9.6664,-9.6728,-9.6724,-9.6814,-9.6944,-9.702,-9.7168,-9.729,-9.7397,-9.7434,-9.7385,-9.738,-9.7419,-9.743,-9.7426,-9.7431,-9.6957,-9.7369,-9.7366,-9.7364,-9.7362,-9.736,-9.645,-9.6559,-9.6633,-9.6756,-9.6815,-9.6891,-9.6995,-9.7023,-9.7132,-9.7254,-9.7238,-9.7384,-9.7453,-9.7592,-9.7639,-9.7751,-9.7695,-9.7751,-9.7765,-9.778,-9.7796,-9.7408,-9.7769,-9.7768,-9.7768,-9.7767,-9.7766,0,-9.681,-9.6854,-9.6968,-9.7083,-9.718,-9.7127,-9.7213,-9.7297,-9.7426,-9.7497,-9.7594,-9.7744,-9.7862,-9.7898,-9.8012,-9.8095,-9.8075,-9.8125,-9.8119,-9.8129,-9.7838,-9.7794,-9.8139,-9.8139,-9.8139,-9.8139,-9.8139,-9.8139,-9.7009,-9.7191,-9.7199,-9.741,-9.7452,-9.7596,-9.765,-9.7719,-9.7776,-9.7947,-9.8045,-9.8069,-9.8126,-9.8243,-9.8348,-9.8356,-9.84,-9.846,-9.8459,-9.8186,-9.8149,-9.8113,-9.8072,-9.847,-9.847,-9.874,-9.8742,-9.8744]}]]